Content
SEND FEEDBACK

Daily
Averages
Monthly
Summary
Mexico

SAN MARTINIANO, QUINTANA ROO


Home > North America > Mexico > Quintana Roo
Elevation: 49 feet     Latitude: 20 47N     Longitude: 087 16W

WEATHER
 
SELECT A DAY
Number of Records: 196,556;   Date Range: 2/21/06 - 8/30/14
 
SHARE

PRINT THIS DATA

[ ← Previous Day ]
WEATHER ALMANAC - NOVEMBER 29, 2013
[ Next Day → ]
[ °C ]   °F
Weather ElementAverageHighLow
Temperature60.8 °F75.2 °F (2:15 pm)51.8 °F (12:35 am)
Dewpoint39.2 °F57.2 °F (9:15 am) (7:00 pm)
Humidity66.3 %100 % (3:15 am)38 % (2:15 pm)
Barometer30.34 in30.39 in (9:15 am)30.30 in (1:55 pm)
Wind Speed8.4 mph13.8 mph (1:55 pm)
Wind Gust19.6 mph (12:15 pm)
Weather ElementAverage
Visibility10 mi
Wind DirectionNNE (34.6 °)

Weather ElementTotal
Precipitation---
Heating Degree Days1.5 (Base 65)
Growing Degree Days13.5 (Base 50)
Averaged from 71 records on November 29, 2013
WEATHER CONDITIONS BREAKOUT
WIND DIRECTION BREAKOUT
WEATHER BY HOUR - NOVEMBER 29, 2013
[ °C ]   °F
Local TimeTemperatureDewpointHumidityBarometerVisibilityWind DirectionWind SpeedGust SpeedPrecipitationEventsConditions
12:35 AM51.8 °F48.2 °F88 %30.36 in10.0 miNNE (30°)8.1 mphClear
12:55 AM51.8 °F48.2 °F88 %30.35 in10.0 miNNE (30°)6.9 mphClear
1:15 AM51.8 °F48.2 °F88 %30.35 in10.0 miNNE (30°)6.9 mphClear
1:35 AM51.8 °F48.2 °F88 %30.35 in10.0 miNNE (30°)6.9 mphScattered Clouds
1:55 AM51.8 °F48.2 °F88 %30.35 in10.0 miNNE (30°)6.9 mphMostly Cloudy
2:15 AM51.8 °F48.2 °F88 %30.34 in10.0 miNNE (30°)6.9 mphScattered Clouds
2:35 AM51.8 °F48.2 °F88 %30.34 in10.0 miNNE (30°)6.9 mphScattered Clouds
2:55 AM51.8 °F50.0 °F94 %30.33 in10.0 miNNE (30°)4.6 mphClear
3:15 AM51.8 °F51.8 °F100 %30.34 in10.0 miNNE (20°)5.8 mphClear
3:35 AM51.8 °F51.8 °F100 %30.33 in10.0 miNNE (30°)6.9 mphClear
3:55 AM51.8 °F0.0 °F30.33 in10.0 miNNE (30°)8.1 mphClear
4:15 AM51.8 °F0.0 °F30.33 in10.0 miNE (40°)6.9 mphClear
4:35 AM51.8 °F0.0 °F30.33 in10.0 miNE (40°)6.9 mphClear
4:55 AM51.8 °F0.0 °F30.33 in10.0 miNE (40°)9.2 mphClear
5:15 AM51.8 °F0.0 °F30.33 in10.0 miNE (40°)6.9 mphClear
5:35 AM51.8 °F0.0 °F30.34 in10.0 miNE (40°)5.8 mphClear
5:55 AM51.8 °F0.0 °F30.35 in10.0 miNNE (30°)5.8 mphClear
6:15 AM51.8 °F0.0 °F30.35 in10.0 miNNE (30°)5.8 mphClear
6:35 AM51.8 °F0.0 °F30.35 in10.0 miNNE (30°)6.9 mphClear
6:55 AM51.8 °F0.0 °F30.35 in10.0 miNE (40°)6.9 mphClear
7:15 AM53.6 °F0.0 °F30.36 in10.0 miNNE (30°)6.9 mphClear
7:35 AM53.6 °F0.0 °F30.37 in10.0 miNNE (30°)6.9 mphClear
7:55 AM55.4 °F0.0 °F30.38 in10.0 miNE (50°)9.2 mphClear
8:15 AM55.4 °F0.0 °F30.38 in10.0 miNE (40°)6.9 mphClear
8:35 AM57.2 °F0.0 °F30.38 in10.0 miNE (40°)8.1 mphClear
8:55 AM57.2 °F0.0 °F30.38 in10.0 miNE (50°)5.8 mphClear
9:15 AM60.8 °F57.2 °F88 %30.39 in10.0 miNE (50°)6.9 mphClear
9:35 AM62.6 °F53.6 °F72 %30.39 in10.0 miNNE (30°)10.4 mphClear
9:55 AM62.6 °F53.6 °F72 %30.39 in10.0 miNE (40°)9.2 mphClear
10:15 AM62.6 °F53.6 °F72 %30.38 in10.0 miNE (40°)9.2 mph16.1 mphClear
10:35 AM64.4 °F53.6 °F68 %30.39 in10.0 miNNE (30°)9.2 mphClear
10:55 AM64.4 °F53.6 °F68 %30.38 in10.0 miNNE (30°)5.8 mphClear
11:15 AM66.2 °F53.6 °F64 %30.38 in10.0 miNE (40°)9.2 mphScattered Clouds
11:35 AM68.0 °F53.6 °F60 %30.37 in10.0 miNNE (30°)10.4 mphMostly Cloudy
11:55 AM68.0 °F51.8 °F56 %30.37 in10.0 miNE (40°)10.4 mph16.1 mphScattered Clouds
12:15 PM69.8 °F51.8 °F53 %30.35 in10.0 miNE (50°)12.7 mph19.6 mphScattered Clouds
12:35 PM71.6 °F48.2 °F43 %30.34 in10.0 miNE (40°)12.7 mph18.4 mphClear
12:55 PM71.6 °F48.2 °F43 %30.33 in10.0 miNE (50°)10.4 mph16.1 mphScattered Clouds
1:15 PM71.6 °F48.2 °F43 %30.32 in10.0 miNE (40°)8.1 mph16.1 mphClear
1:35 PM71.6 °F48.2 °F43 %30.31 in10.0 miNE (40°)10.4 mph19.6 mphScattered Clouds
1:55 PM73.4 °F48.2 °F41 %30.30 in10.0 miNE (50°)13.8 mphClear
2:15 PM75.2 °F48.2 °F38 %30.30 in10.0 miNNE (30°)13.8 mph19.6 mphClear
2:35 PM73.4 °F48.2 °F41 %30.30 in10.0 miNE (40°)10.4 mph16.1 mphMostly Cloudy
2:55 PM73.4 °F50.0 °F44 %30.30 in10.0 miNNE (30°)11.5 mph18.4 mphMostly Cloudy
3:15 PM71.6 °F51.8 °F50 %30.30 in10.0 miNNE (30°)12.7 mph18.4 mphMostly Cloudy
3:35 PM71.6 °F51.8 °F50 %30.30 in10.0 miNE (40°)10.4 mph18.4 mphMostly Cloudy
3:55 PM71.6 °F51.8 °F50 %30.30 in10.0 miNE (50°)13.8 mphScattered Clouds
4:15 PM71.6 °F51.8 °F50 %30.30 in10.0 miNE (40°)11.5 mph18.4 mphScattered Clouds
4:35 PM71.6 °F51.8 °F50 %30.30 in10.0 miNE (40°)12.7 mph18.4 mphClear
4:55 PM69.8 °F51.8 °F53 %30.31 in10.0 miNE (50°)9.2 mphClear
5:15 PM69.8 °F53.6 °F56 %30.31 in10.0 miNE (40°)8.1 mphClear
5:35 PM68.0 °F53.6 °F60 %30.32 in10.0 miNE (50°)9.2 mphClear
5:55 PM66.2 °F53.6 °F64 %30.32 in10.0 miNE (40°)6.9 mphClear
6:15 PM66.2 °F53.6 °F64 %30.32 in10.0 miNE (40°)6.9 mphClear
6:35 PM64.4 °F53.6 °F68 %30.33 in10.0 miNE (40°)8.1 mphClear
6:55 PM64.4 °F53.6 °F68 %30.33 in10.0 miNE (40°)8.1 mphClear
7:15 PM64.4 °F51.8 °F64 %30.33 in10.0 miNE (50°)10.4 mph17.3 mphClear
7:35 PM62.6 °F50.0 °F63 %30.34 in10.0 miNE (40°)11.5 mph17.3 mphClear
7:55 PM62.6 °F50.0 °F63 %30.35 in10.0 miNNE (20°)6.9 mphClear
8:15 PM60.8 °F50.0 °F68 %30.35 in10.0 miNNE (30°)5.8 mphClear
8:35 PM60.8 °F50.0 °F68 %30.35 in10.0 miNNE (30°)6.9 mphClear
8:55 PM60.8 °F48.2 °F63 %30.35 in10.0 miNNE (20°)5.8 mphClear
9:15 PM59.0 °F48.2 °F67 %30.35 in10.0 miNNE (20°)8.1 mphClear
9:35 PM59.0 °F48.2 °F67 %30.36 in10.0 miNNE (20°)9.2 mphClear
9:55 PM59.0 °F48.2 °F67 %30.37 in10.0 miNNE (20°)6.9 mphClear
10:15 PM57.2 °F48.2 °F72 %30.37 in10.0 miNorth (10°)5.8 mphClear
10:35 PM57.2 °F48.2 °F72 %30.37 in10.0 miNNE (20°)6.9 mphClear
10:55 PM57.2 °F48.2 °F72 %30.36 in10.0 miNNE (20°)8.1 mphClear
11:15 PM57.2 °F48.2 °F72 %30.36 in10.0 miNNE (20°)6.9 mphClear
11:35 PM55.4 °F50.0 °F82 %30.35 in10.0 miNNE (20°)5.8 mphClear
11:55 PM55.4 °F50.0 °F82 %30.35 in10.0 miNNE (30°)8.1 mphClear
Hourly data recorded from KPCM, located miles away from San Martiniano, Quintana Roo







STORIES FROM OUR PARTNERS